User: anonymous   Login
Location: Slanting_Bridge
(35.6330°N, 80.9830°W)
Time: 03:07:19
(UTC-04:00)
Language:

Hamsat - Orbit

View from above orbital plane
View from above orbital plane
View from above satellite
View from above satellite

Ground track
Ground track

The orbit data is extracted from the following two-line orbital elements,

1 28650U 05017B   15186.51800280  .00001644  00000-0  18634-3 0  9999
2 28650 097.5754 178.1511 0023448 334.7663 025.2406 14.87481964550176
Epoch (UTC): 05 July 2015 12:25:55
Eccentricity: 0.0023448
inclination: 97.5754°
perigee height: 589 km
apogee height: 622 km
right ascension of ascending node: 178.1511°
argument of perigee: 334.7663°
revolutions per day: 14.87481964
mean anomaly at epoch: 25.2406°
orbit number at epoch: 55017

The dashed part of the orbit path shows where the satellite is in the earth's shadow,  

DLR